When you browse on this site, cookies collect data to enhance your experience and personalize the content and advertising you see.
Visit our Privacy Policy to learn more. By continuing to use the site, you agree to this use of cookies and data.
  • In France
  • List of Countries
  • For 7 days
  • Water Temperature
  • Weather Map
  • Weather Widgets
  • user-avatar
    Login

    Hourly Weather Manika

    Today, 26 May, Tuesday

    Time Temperature Precipitation Wind Pressure Humidity
    00:00 +15°C° 0 mm 1 mps 677 mmHg 64%
    01:00 +14°C° 0 mm 1 mps 677 mmHg 66%
    02:00 +14°C° 0 mm 1 mps 677 mmHg 71%
    03:00 +14°C° 0 mm 1 mps 677 mmHg 72%
    04:00 +14°C° 0 mm 1 mps 676 mmHg 72%
    05:00 +14°C° 0 mm 1 mps 676 mmHg 72%
    06:00 +16°C° 0 mm 1 mps 677 mmHg 64%
    07:00 +19°C° 0 mm 1 mps 678 mmHg 57%
    08:00 +21°C° 0 mm 1 mps 679 mmHg 49%
    09:00 +23°C° 0 mm 1 mps 679 mmHg 41%
    10:00 +26°C° 0 mm 2 mps 679 mmHg 33%
    11:00 +29°C° 0 mm 3 mps 680 mmHg 25%
    12:00 +29°C° 0 mm 3 mps 679 mmHg 23%
    13:00 +30°C° 0 mm 3 mps 678 mmHg 21%
    14:00 +31°C° 0 mm 3 mps 677 mmHg 20%
    15:00 +29°C° 0 mm 2 mps 677 mmHg 24%
    16:00 +27°C° 0 mm 2 mps 677 mmHg 28%
    17:00 +26°C° 0 mm 1 mps 677 mmHg 31%
    18:00 +24°C° 0 mm 1 mps 677 mmHg 34%
    19:00 +23°C° 0 mm 1 mps 677 mmHg 37%
    20:00 +22°C° 0 mm 1 mps 678 mmHg 39%
    21:00 +22°C° 0 mm 1 mps 678 mmHg 40%
    22:00 +22°C° 0 mm 1 mps 678 mmHg 41%
    23:00 +22°C° 0 mm 1 mps 678 mmHg 42%

    Tomorrow, 27 May, Wednesday

    Time Temperature Precipitation Wind Pressure Humidity
    00:00 +20°C° 0 mm 1 mps 678 mmHg 45%
    01:00 +18°C° 0 mm 2 mps 677 mmHg 49%
    02:00 +17°C° 0 mm 2 mps 677 mmHg 53%
    03:00 +18°C° 0 mm 1 mps 677 mmHg 55%
    04:00 +18°C° 0 mm 1 mps 677 mmHg 57%
    05:00 +16°C° 0 mm 1 mps 677 mmHg 58%
    06:00 +19°C° 0 mm 1 mps 678 mmHg 53%
    07:00 +19°C° 0 mm 2 mps 679 mmHg 48%
    08:00 +21°C° 0 mm 2 mps 680 mmHg 42%
    09:00 +23°C° 0 mm 2 mps 680 mmHg 36%
    10:00 +25°C° 0 mm 2 mps 681 mmHg 29%
    11:00 +27°C° 0 mm 3 mps 681 mmHg 23%
    12:00 +27°C° 0 mm 3 mps 681 mmHg 22%
    13:00 +28°C° 0 mm 3 mps 680 mmHg 21%
    14:00 +28°C° 0 mm 3 mps 679 mmHg 21%
    15:00 +27°C° 0 mm 2 mps 679 mmHg 25%
    16:00 +25°C° 0 mm 2 mps 679 mmHg 28%
    17:00 +23°C° 0 mm 2 mps 679 mmHg 32%
    18:00 +21°C° 0 mm 1 mps 679 mmHg 40%
    19:00 +19°C° 0 mm 1 mps 680 mmHg 47%
    20:00 +16°C° 0 mm 1 mps 680 mmHg 55%
    21:00 +15°C° 0 mm 1 mps 680 mmHg 65%
    22:00 +14°C° 0 mm 1 mps 680 mmHg 74%
    23:00 +13°C° 0 mm 1 mps 680 mmHg 83%

    Day after tomorrow, 28 May, Thursday

    Time Temperature Precipitation Wind Pressure Humidity
    00:00 +13°C° 0 mm 1 mps 680 mmHg 87%
    01:00 +12°C° 0 mm 1 mps 680 mmHg 90%
    02:00 +12°C° 0 mm 1 mps 680 mmHg 94%
    03:00 +13°C° 0 mm 1 mps 680 mmHg 93%
    04:00 +13°C° 0 mm 1 mps 680 mmHg 92%
    05:00 +13°C° 0 mm 1 mps 681 mmHg 92%
    06:00 +14°C° 0 mm 2 mps 681 mmHg 87%
    07:00 +15°C° 0 mm 2 mps 682 mmHg 81%
    08:00 +16°C° 0 mm 3 mps 682 mmHg 76%
    09:00 +19°C° 0 mm 3 mps 683 mmHg 67%
    10:00 +21°C° 0 mm 3 mps 683 mmHg 57%
    11:00 +25°C° 0 mm 3 mps 683 mmHg 47%
    12:00 +26°C° 0 mm 2 mps 682 mmHg 43%
    13:00 +27°C° 0 mm 2 mps 682 mmHg 40%
    14:00 +28°C° 0 mm 2 mps 681 mmHg 36%
    15:00 +26°C° 0 mm 3 mps 681 mmHg 43%
    16:00 +25°C° 0 mm 3 mps 681 mmHg 50%
    17:00 +22°C° 0 mm 3 mps 680 mmHg 58%
    18:00 +20°C° 0 mm 3 mps 680 mmHg 66%
    19:00 +18°C° 0 mm 3 mps 680 mmHg 74%
    20:00 +16°C° 0 mm 2 mps 680 mmHg 83%
    21:00 +16°C° 0 mm 2 mps 680 mmHg 86%
    22:00 +15°C° 0 mm 2 mps 680 mmHg 90%
    23:00 +15°C° 0 mm 2 mps 680 mmHg 94%

    29 May, Friday

    Time Temperature Precipitation Wind Pressure Humidity
    00:00 +15°C° 0 mm 1 mps 680 mmHg 94%
    01:00 +14°C° 0 mm 1 mps 680 mmHg 95%
    02:00 +14°C° 0 mm 1 mps 680 mmHg 96%
    03:00 +14°C° 0 mm 1 mps 680 mmHg 96%
    04:00 +14°C° 0 mm 1 mps 680 mmHg 95%
    05:00 +14°C° 0 mm 1 mps 680 mmHg 95%
    06:00 +15°C° 0 mm 1 mps 680 mmHg 87%
    07:00 +18°C° 0 mm 1 mps 681 mmHg 79%
    08:00 +18°C° 0 mm 0 mps 682 mmHg 71%
    09:00 +23°C° 0 mm 1 mps 682 mmHg 58%
    10:00 +26°C° 0 mm 1 mps 682 mmHg 44%
    11:00 +30°C° 0 mm 1 mps 683 mmHg 31%
    12:00 +30°C° 0 mm 1 mps 682 mmHg 27%
    13:00 +31°C° 0 mm 1 mps 681 mmHg 24%
    14:00 +31°C° 0 mm 1 mps 680 mmHg 20%
    15:00 +30°C° 0 mm 2 mps 680 mmHg 25%
    16:00 +28°C° 0 mm 2 mps 680 mmHg 29%
    17:00 +26°C° 0 mm 2 mps 679 mmHg 34%
    18:00 +24°C° 0 mm 2 mps 680 mmHg 42%
    19:00 +21°C° 0 mm 2 mps 680 mmHg 50%
    20:00 +19°C° 0 mm 2 mps 680 mmHg 58%
    21:00 +18°C° 0 mm 2 mps 680 mmHg 66%
    22:00 +18°C° 0 mm 1 mps 680 mmHg 74%
    23:00 +16°C° 0 mm 1 mps 680 mmHg 82%

    30 May, Saturday

    Time Temperature Precipitation Wind Pressure Humidity
    00:00 +16°C° 0 mm 1 mps 680 mmHg 85%
    01:00 +16°C° 0 mm 1 mps 680 mmHg 88%
    02:00 +15°C° 0 mm 1 mps 680 mmHg 92%
    03:00 +15°C° 0 mm 1 mps 680 mmHg 92%
    04:00 +15°C° 0 mm 1 mps 680 mmHg 92%
    05:00 +15°C° 0 mm 1 mps 680 mmHg 93%
    06:00 +16°C° 0 mm 0 mps 681 mmHg 85%
    07:00 +17°C° 0 mm 0 mps 681 mmHg 78%
    08:00 +19°C° 0 mm 0 mps 682 mmHg 70%
    09:00 +22°C° 0 mm 0 mps 683 mmHg 60%
    10:00 +26°C° 0 mm 1 mps 683 mmHg 50%
    11:00 +29°C° 0 mm 1 mps 684 mmHg 40%
    12:00 +29°C° 0 mm 2 mps 683 mmHg 41%
    13:00 +28°C° 0 mm 2 mps 682 mmHg 41%
    14:00 +28°C° 0 mm 3 mps 682 mmHg 41%
    15:00 +27°C° 0.1 mm 3 mps 682 mmHg 48%
    16:00 +25°C° 0.1 mm 3 mps 682 mmHg 56%
    17:00 +22°C° 0.1 mm 3 mps 682 mmHg 63%
    18:00 +21°C° 0 mm 3 mps 682 mmHg 72%
    19:00 +19°C° 0 mm 3 mps 682 mmHg 80%
    20:00 +18°C° 0 mm 3 mps 683 mmHg 88%
    21:00 +17°C° 0 mm 3 mps 683 mmHg 90%
    22:00 +17°C° 0 mm 3 mps 683 mmHg 92%
    23:00 +16°C° 0 mm 2 mps 683 mmHg 95%

    31 May, Sunday

    Time Temperature Precipitation Wind Pressure Humidity
    00:00 +16°C° 0 mm 2 mps 682 mmHg 95%
    01:00 +16°C° 0 mm 2 mps 682 mmHg 96%
    02:00 +15°C° 0 mm 1 mps 682 mmHg 96%
    03:00 +15°C° 0 mm 1 mps 682 mmHg 96%
    04:00 +15°C° 0 mm 1 mps 682 mmHg 96%
    05:00 +14°C° 0 mm 1 mps 682 mmHg 96%
    06:00 +15°C° 0 mm 1 mps 683 mmHg 91%
    07:00 +16°C° 0 mm 2 mps 683 mmHg 87%
    08:00 +17°C° 0 mm 2 mps 684 mmHg 82%
    09:00 +19°C° 0 mm 2 mps 684 mmHg 72%
    10:00 +21°C° 0 mm 2 mps 684 mmHg 61%
    11:00 +24°C° 0 mm 3 mps 684 mmHg 51%
    12:00 +25°C° 0 mm 3 mps 684 mmHg 49%
    13:00 +26°C° 0 mm 3 mps 683 mmHg 46%
    14:00 +26°C° 0 mm 4 mps 683 mmHg 44%
    15:00 +25°C° 0 mm 4 mps 683 mmHg 51%
    16:00 +22°C° 0 mm 3 mps 683 mmHg 58%
    17:00 +20°C° 0 mm 3 mps 682 mmHg 65%
    18:00 +19°C° 0 mm 3 mps 683 mmHg 74%
    19:00 +17°C° 0 mm 3 mps 683 mmHg 83%
    20:00 +16°C° 0 mm 2 mps 683 mmHg 92%
    21:00 +15°C° 0 mm 2 mps 683 mmHg 93%
    22:00 +15°C° 0 mm 2 mps 683 mmHg 95%
    23:00 +15°C° 0 mm 2 mps 683 mmHg 96%
    Show more